Regional Weather Roundup
Issued by NWS Wakefield, VA

Home | Current Version | Previous Version | Text Only | Print | Product List | Glossary On
Versions: 1 2 3 4 5 6 7 8 9 10 11 12 13 14 15 16 17 18 19 20 21 22 23 24 25 26
000
ASUS41 KAKQ 120215
RWRAKQ

REGIONAL WEATHER ROUNDUP
NATIONAL WEATHER SERVICE WAKEFIELD VA
900 PM EST MON DEC 11 2017

Note: "fair" indicates few or no clouds below 12,000 feet with no
significant weather and/or obstructions to visibility. * = Denotes
station may not report precipitation (e.g., rain,snow,etc.),
thunder or fog.

VAZ042-051-052>054-056-120300-
NORTHERN VIRGINIA

CITY           SKY/WX    TMP DP  RH WIND       PRES   REMARKS
WASH NATIONAL  MOCLDY    42  32  67 S12       29.95F
DULLES         PTCLDY    40  30  67 SE12      29.91F
FORT BELVOIR   CLOUDY    39  30  70 SE5       29.94F
QUANTICO       PTCLDY    43  34  70 S13       29.96F
FREDERICKSBRG* CLEAR     38  30  73 SE7       29.94F
STAFFORD*      CLEAR     37  28  69 CALM      29.98F
WARRENTON      PTCLDY    41  24  51 S5        29.91F
CULPEPER*      CLEAR     32  26  77 CALM      29.92F
MANASSAS*      CLEAR     35  28  75 SE8       29.92F
LEESBURG*      CLEAR     39  32  75 S8        29.91F
WINCHESTER     PTCLDY    41  25  52 S7        29.84F
FRONT ROYAL*   PTCLDY    41  27  56 MISG      29.84F
LURAY*         PTCLDY    34  28  80 S5        29.85F
$$

VAZ048-049-060>072-079>083-120300-
CENTRAL AND SOUTH CENTRAL VIRGINIA

CITY           SKY/WX    TMP DP  RH WIND       PRES   REMARKS
RICHMOND       CLEAR     38  30  73 CALM      29.95F
CHESTERFIELD*  NOT AVBL
PETERSBURG*    CLEAR     28  28 100 CALM      29.96F
HANOVER        CLEAR     31  29  92 CALM      29.96S
TAPPAHANNOCK*    N/A    N/A N/A N/A MISG        N/A
QUINTON*       FAIR      36  30  79 SE3       29.96S
CHARLOTTSVILLE CLEAR     36  26  67 S8        29.89F
GORDONSVILLE*  CLEAR     31  27  86 CALM      29.91F
ORANGE*        CLEAR     32  27  80 CALM      29.92F
LOUISA*        CLEAR     38  26  61 SE5       29.96F
BUMPASS*       FAIR      34  27  73 CALM      29.94F
FARMVILLE*     CLEAR     33  32  95 CALM      29.92F
CREWE*         FAIR      33  33 100 CALM      29.94F
FORT PICKETT*  NOT AVBL
CHASE CITY*    FAIR      38  31  77 CALM      29.95S
CLARKSVILLE*   FAIR      37  32  81 S6        29.95F
SOUTH HILL*    CLEAR     37  32  81 S6        30.01F
LAWRENCEVILLE* FAIR      38  30  71 CALM      29.96F
EMPORIA*       CLEAR     34  30  86 SE3       29.98F
$$

VAZ088>098-120300-
SOUTHEAST VIRGINIA

CITY           SKY/WX    TMP DP  RH WIND       PRES   REMARKS
NORFOLK        CLEAR     40  32  73 S6        29.99F
VIRGINIA BEACH CLEAR     40  31  70 S6        30.00F
NORFOLK NAVAL  CLEAR     41  31  67 SE6       30.00F
WEST POINT*    CLEAR    N/A N/A N/A SE7       29.98F
SALUDA*        FAIR      39  32  76 SE6       29.97F
NEWPORT NEWS   CLEAR     41  32  70 SE8       29.98F
LANGLEY AFB    CLEAR     41  33  73 S6        29.98F
FORT EUSTIS    CLEAR     41  34  76 SE7       29.95F
WILLIAMSBURG*  CLEAR     45  36  70 S7        29.98F
HR EXEC AP*    FAIR      35  31  85 SE5       30.00F
FRANKLIN*      CLEAR     37  31  78 S6        29.99F
US460-WAKEFLD  CLEAR     37  31  78 VRB3      29.97F
$$

VAZ020-022-025-037-045-120300-
WEST CENTRAL AND SOUTHWEST VIRGINIA

CITY           SKY/WX    TMP DP  RH WIND       PRES   REMARKS
STAUNTON*      CLEAR     33  25  72 SW5       29.87F
WAYNESBORO*    CLEAR     34  26  70 S5        29.86F
HOT SPRINGS VA CLEAR     36  21  55 S10       29.80F
LYNCHBURG      CLEAR     33  27  78 CALM      29.90F
DANVILLE       CLEAR     37  30  75 S6        29.94F
SOUTH BOSTON*  FAIR      39  29  67 S3        29.95S
MARTINSVILLE   CLEAR     29  26  88 SW3       29.94F
ROANOKE        CLEAR     42  28  57 CALM      29.90F
BLACKSBURG     CLEAR     38  28  68 CALM      29.89F
DUBLIN*        CLEAR     37  28  70 CALM      29.87F
MARION*        CLEAR     32  25  74 CALM      29.87F
HILLSVILLE*    CLEAR     38  28  66 S8        29.85F
RICHLANDS*     FAIR      45   7  21 SW6       29.83R
WISE*          CLOUDY    45  30  57 SW20      29.83S
ABINGDON*      CLEAR     35  28  76 CALM      29.86F
$$

MDZ021>025-VAZ099-100-120300-
SOUTHERN MARYLAND AND THE DELMARVA PENINSULA

CITY           SKY/WX    TMP DP  RH WIND       PRES   REMARKS
PATUXENT RIVER PTCLDY    40  31  70 S7        29.97F
BAY BRIDGE APT CLOUDY    39  30  70 SE9       29.96F
LEONARDTOWN    PTCLDY    34  32  93 CALM      29.98F
DOVER          PTCLDY    34  29  83 SE6       29.98F
GEORGETOWN     CLEAR     32  26  78 S3        29.99F
EASTON         CLEAR     37  28  70 SE7       30.01F
CAMBRIDGE      PTCLDY    32  28  86 SE7       29.99S
SALISBURY      CLEAR     30  28  92 CALM      29.99F
OCEAN CITY     CLEAR     31  29  92 CALM      30.00F
WALLOPS ISLAND CLEAR     35  28  75 S8        30.00F
ACCOMACK*      CLEAR     36  31  83 S8        29.99F
$$

NCZ012>017-030>032-120300-
NORTH CENTRAL AND EASTERN NORTH CAROLINA

CITY           SKY/WX    TMP DP  RH WIND       PRES   REMARKS
ROANOKE RAPIDS FAIR      37  32  81 CALM      29.98F
RALEIGH        PTCLDY    42  29  59 S6        29.98F
ELIZABETH CITY CLEAR     42  36  79 SE6       30.02S
AHOSKIE*       CLEAR     32  31  97 CALM      30.00F
EDENTON*       CLEAR     42  36  79 S6        30.02F
CURRITUCK*     CLEAR     40  33  75 S3        30.02S
KILL DEVIL HLS CLEAR     41  30  65 CALM      30.02F
MANTEO         CLEAR     37  32  82 CALM      30.03F
CAPE HATTERAS  CLEAR     35  33  92 E3        30.03S
TARBORO*       NOT AVBL
GOLDSBORO      CLEAR     43  29  58 S3        29.99F
WASHINGTON     CLEAR     39  34  81 S5        30.02F
GREENVILLE     CLEAR     37  32  81 CALM      30.03F
NEW BERN       CLEAR     34  33  96 S3        30.03F
WILMINGTON     CLEAR     36  33  89 CALM      30.05F
$$

VAZ048-120300-
ELSEWHERE

CITY           SKY/WX    TMP DP  RH WIND       PRES   REMARKS
HARRISBURG PA  CLOUDY    36  26  67 SE8       29.91F
BALTIMORE      MOCLDY    38  32  79 S3        29.94F
ANNAPOLIS      CLOUDY    42  32  67 S10       29.95F
ANDREWS AFB    MOCLDY    37  29  74 S8        29.93F
PHILADELPHIA   MOCLDY    36  24  62 SE3       29.99F
GREENSBORO     PTCLDY    40  30  67 S8        29.93F
ROCKY MOUNT    CLEAR     36  34  92 S3        29.99F
$$

VAZ100-120300-
MARINE

STATION/POSITION TIME  TEMP    WIND        PRES    WAVE   SWELL
                       AIR SEA DIR/SP/G            HT/PER HT/PER
                 (UTC) (F)     (DEG/KT/KT) (MB)    (FT/S) (FT/S)
BRANDYWINE LGT   0142   44     200/ 16/ 19 1015.9R
CAPE MAY NJ      0148   42 44  200/  7/  9 1015.3S
LEWES DE         0148   38 46  190/  4/  5 1015.5F
15NM E FENWICK I 0150   47 53  180/ 12/ 16 1016.4F   2/10   2/10
OCEAN-CITY-INLET 0148   41 47  240/  4/  5 1016.1F
WACHAPREAGUE VA  0148   39 43  220/  3/  5 1016.0S
THOMAS POINT MD  0200   44 48  160/ 17/ 20   N/A
GOOSES REEF MD   0200   43 48  140/ 14/ 16 1015.1    2/ 3
COVE POINT MD    0148   44     180/ 17/ 19 1015.4F
SOLOMONS ISLAND  0148   43 48  170/  8/  9 1014.6F
BISHOPS HEAD MD  0148   44 43  160/ 11/ 14 1015.4F
PINEY POINT MD   0142          190/ 13/ 16   N/A
POTOMAC MD       0200   45 49  170/ 14/ 17 1014.2    1/ 2
CAMBRIDGE MD     0148   37 45              1015.8F
LEWISETTA VA     0148   41 44  180/  6/  7 1014.8F
RAPPAHANNOCK LGT 0148          150/ 12/ 14 1016.2F
STINGRAY PT      0200   46 48  190/ 17/ 21 1015.0    2/ 3
YORK RVR RNG VA  0148   46     170/ 16/ 18 1015.7F
YORKTOWN VA      0148   42 50  150/  6/  9 1014.9F
JAMESTOWN VA     0200      49  150/ 12/ 14   N/A
DOMINION TERM VA 0148   44     150/ 11/ 14 1015.5F
KIPTOPEKE VA     0148      49  180/ 13/ 15   N/A
CAPE HENRY VA    0148   43     170/  8/  9   N/A
WILLOUBY STN VA  0142   43     160/ 11/ 13 1015.3F
S CRANEY ISL VA  0148   44     170/ 10/ 12 1015.6F
CAPE HENRY BUOY  0200      53                N/A     2/10
1ST LANDING BUOY 0200   45 49  180/ 14/ 16 1015.7    1/ 3
CAPE CHARLES BUO 0151      54                N/A     2/ 9
64NM E OF VA BCH 0150   49 58  190/  8/ 10 1016.9F   2/ 6   2/ 6
DUCK PIER NC     0148   46 54  170/ 11/ 12 1016.0F
44100 DUCK FRF   0115      56                N/A     2/10
44056 DUCK FRF   0200      54                N/A     1/ 9
OREGON INLET NC  0142   44 46  140/  4/  4 1016.8F
HATTERAS NC      0148   46 54     CALM     1016.6F
DIAMOND SHLS NC  0150   56 75  170/  2/  6 1017.2F   3/ 6   3/ 6
CAPE LOOKOUT NC  0200          250/  3/  3 1017.2F
$$




USA.gov is the U.S. government's official web portal to all federal, state and local government web resources and services.